Time,TemperatureF,DewpointF,PressureIn,WindDirection,WindDirectionDegrees,WindSpeedMPH,WindSpeedGustMPH,Humidity,HourlyPrecipIn,Conditions,Clouds,dailyrainin,SoftwareType,DateUTC
2013-10-02 00:01:00,60.7,57.4,29.89,NW,319,1.0,2.0,89,0.00,,---,0.00,VWS V13.00,2013-10-02 04:01:00,
2013-10-02 00:06:00,60.6,57.3,29.89,NW,319,0.0,0.0,89,0.00,,---,0.00,VWS V13.00,2013-10-02 04:06:00,
2013-10-02 00:11:00,60.6,57.3,29.89,NW,319,0.0,0.0,89,0.00,,---,0.00,VWS V13.00,2013-10-02 04:11:00,
2013-10-02 00:16:00,60.5,57.2,29.89,NW,319,0.0,1.0,89,0.00,,---,0.00,VWS V13.00,2013-10-02 04:16:00,
2013-10-02 00:21:00,60.4,57.5,29.89,NW,319,0.0,1.0,90,0.00,,---,0.00,VWS V13.00,2013-10-02 04:21:00,
2013-10-02 00:26:00,60.4,57.5,29.89,NW,319,0.0,1.0,90,0.00,,---,0.00,VWS V13.00,2013-10-02 04:26:00,
2013-10-02 00:31:00,60.3,57.4,29.89,NW,319,0.0,1.0,90,0.00,,---,0.00,VWS V13.00,2013-10-02 04:31:00,
2013-10-02 00:36:00,60.3,57.4,29.89,NW,319,0.0,0.0,90,0.00,,---,0.00,VWS V13.00,2013-10-02 04:36:00,
2013-10-02 00:41:00,60.2,57.3,29.89,NW,319,0.0,0.0,90,0.00,,---,0.00,VWS V13.00,2013-10-02 04:41:00,
2013-10-02 00:46:00,60.1,57.2,29.89,NW,319,0.0,1.0,90,0.00,,---,0.00,VWS V13.00,2013-10-02 04:46:00,
2013-10-02 00:51:00,60.1,57.5,29.89,NW,319,0.0,1.0,91,0.00,,---,0.00,VWS V13.00,2013-10-02 04:51:00,
2013-10-02 00:56:00,60.2,57.6,29.89,NW,319,0.0,1.0,91,0.00,,---,0.00,VWS V13.00,2013-10-02 04:56:00,
2013-10-02 01:01:00,60.2,57.3,29.89,NW,319,0.0,2.0,90,0.00,,---,0.00,VWS V13.00,2013-10-02 05:01:00,
2013-10-02 01:06:00,60.3,57.4,29.89,NW,319,0.0,0.0,90,0.00,,---,0.00,VWS V13.00,2013-10-02 05:06:00,
2013-10-02 01:11:00,60.4,57.5,29.89,NW,319,1.0,1.0,90,0.00,,---,0.00,VWS V13.00,2013-10-02 05:11:00,
2013-10-02 01:16:00,60.5,57.6,29.89,NW,319,0.0,1.0,90,0.00,,---,0.00,VWS V13.00,2013-10-02 05:16:00,
2013-10-02 01:21:00,60.5,57.6,29.89,NW,319,0.0,1.0,90,0.00,,---,0.00,VWS V13.00,2013-10-02 05:21:00,
2013-10-02 01:26:00,60.3,57.0,29.89,NW,319,0.0,1.0,89,0.00,,---,0.00,VWS V13.00,2013-10-02 05:26:00,
2013-10-02 01:31:00,60.1,57.2,29.89,NW,319,0.0,1.0,90,0.00,,---,0.00,VWS V13.00,2013-10-02 05:31:00,
2013-10-02 01:36:00,59.8,56.9,29.89,NW,319,0.0,0.0,90,0.00,,---,0.00,VWS V13.00,2013-10-02 05:36:00,
2013-10-02 01:41:00,59.6,56.7,29.89,NW,319,0.0,0.0,90,0.00,,---,0.00,VWS V13.00,2013-10-02 05:41:00,
2013-10-02 01:46:00,59.4,56.8,29.89,NW,319,0.0,0.0,91,0.00,,---,0.00,VWS V13.00,2013-10-02 05:46:00,
2013-10-02 01:51:00,59.1,56.5,29.89,NW,319,0.0,0.0,91,0.00,,---,0.00,VWS V13.00,2013-10-02 05:51:00,
2013-10-02 01:56:00,59.0,56.4,29.89,NW,319,0.0,0.0,91,0.00,,---,0.00,VWS V13.00,2013-10-02 05:56:00,
2013-10-02 02:01:00,59.0,56.4,29.89,NW,319,0.0,0.0,91,0.00,,---,0.00,VWS V13.00,2013-10-02 06:01:00,
2013-10-02 02:06:00,59.0,56.4,29.88,NW,319,0.0,0.0,91,0.00,,---,0.00,VWS V13.00,2013-10-02 06:06:00,
2013-10-02 02:11:00,59.0,56.4,29.88,NW,319,0.0,1.0,91,0.00,,---,0.00,VWS V13.00,2013-10-02 06:11:00,
2013-10-02 02:16:00,58.9,56.3,29.88,NW,319,0.0,1.0,91,0.00,,---,0.00,VWS V13.00,2013-10-02 06:16:00,
2013-10-02 02:21:00,58.8,56.2,29.88,NW,319,0.0,1.0,91,0.00,,---,0.00,VWS V13.00,2013-10-02 06:21:00,
2013-10-02 02:26:00,58.7,56.1,29.88,NW,319,0.0,1.0,91,0.00,,---,0.00,VWS V13.00,2013-10-02 06:26:00,
2013-10-02 02:31:00,58.7,56.1,29.89,NW,319,0.0,1.0,91,0.00,,---,0.00,VWS V13.00,2013-10-02 06:31:00,
2013-10-02 02:36:00,58.7,56.1,29.89,NW,319,0.0,0.0,91,0.00,,---,0.00,VWS V13.00,2013-10-02 06:36:00,
2013-10-02 02:41:00,58.6,56.0,29.88,NW,319,0.0,0.0,91,0.00,,---,0.00,VWS V13.00,2013-10-02 06:41:00,
2013-10-02 02:46:00,58.5,55.9,29.88,NW,319,0.0,1.0,91,0.00,,---,0.00,VWS V13.00,2013-10-02 06:46:00,
2013-10-02 02:51:00,58.4,55.8,29.88,NW,319,0.0,1.0,91,0.00,,---,0.00,VWS V13.00,2013-10-02 06:51:00,
2013-10-02 02:56:00,58.5,55.9,29.88,NW,319,0.0,2.0,91,0.00,,---,0.00,VWS V13.00,2013-10-02 06:56:00,
2013-10-02 03:01:00,58.5,55.9,29.88,NW,319,0.0,2.0,91,0.00,,---,0.00,VWS V13.00,2013-10-02 07:01:00,
2013-10-02 03:06:00,58.4,55.8,29.89,NW,319,0.0,0.0,91,0.00,,---,0.00,VWS V13.00,2013-10-02 07:06:00,
2013-10-02 03:11:00,58.3,55.7,29.89,NW,319,0.0,0.0,91,0.00,,---,0.00,VWS V13.00,2013-10-02 07:11:00,
2013-10-02 03:16:00,58.2,55.6,29.88,NW,319,0.0,0.0,91,0.00,,---,0.00,VWS V13.00,2013-10-02 07:16:00,
2013-10-02 03:21:00,58.0,55.4,29.89,NW,319,0.0,0.0,91,0.00,,---,0.00,VWS V13.00,2013-10-02 07:21:00,
2013-10-02 03:26:00,57.8,55.2,29.88,NW,319,0.0,0.0,91,0.00,,---,0.00,VWS V13.00,2013-10-02 07:26:00,
2013-10-02 03:31:00,57.7,55.1,29.88,NW,319,0.0,0.0,91,0.00,,---,0.00,VWS V13.00,2013-10-02 07:31:00,
2013-10-02 03:36:00,57.5,54.9,29.88,NW,319,0.0,0.0,91,0.00,,---,0.00,VWS V13.00,2013-10-02 07:36:00,
2013-10-02 03:41:00,57.4,54.8,29.88,NW,319,0.0,0.0,91,0.00,,---,0.00,VWS V13.00,2013-10-02 07:41:00,
2013-10-02 03:46:00,57.3,54.7,29.88,NW,319,0.0,0.0,91,0.00,,---,0.00,VWS V13.00,2013-10-02 07:46:00,
2013-10-02 03:51:00,57.1,54.5,29.88,NW,319,0.0,0.0,91,0.00,,---,0.00,VWS V13.00,2013-10-02 07:51:00,
2013-10-02 03:56:00,57.0,54.4,29.88,NW,319,0.0,0.0,91,0.00,,---,0.00,VWS V13.00,2013-10-02 07:56:00,
2013-10-02 04:01:00,56.9,54.6,29.88,NW,319,0.0,0.0,92,0.00,,---,0.00,VWS V13.00,2013-10-02 08:01:00,
2013-10-02 04:06:00,56.8,54.2,29.89,NW,319,0.0,0.0,91,0.00,,---,0.00,VWS V13.00,2013-10-02 08:06:00,
2013-10-02 04:11:00,56.8,54.2,29.89,NW,319,0.0,0.0,91,0.00,,---,0.00,VWS V13.00,2013-10-02 08:11:00,
2013-10-02 04:16:00,56.9,54.0,29.89,NW,319,0.0,0.0,90,0.00,,---,0.00,VWS V13.00,2013-10-02 08:16:00,
2013-10-02 04:21:00,56.9,54.0,29.88,NW,319,0.0,0.0,90,0.00,,---,0.00,VWS V13.00,2013-10-02 08:21:00,
2013-10-02 04:26:00,57.0,54.1,29.88,NW,319,0.0,0.0,90,0.00,,---,0.00,VWS V13.00,2013-10-02 08:26:00,
2013-10-02 04:31:00,57.0,54.1,29.88,NW,319,0.0,0.0,90,0.00,,---,0.00,VWS V13.00,2013-10-02 08:31:00,
2013-10-02 04:36:00,57.0,54.1,29.88,NW,319,0.0,0.0,90,0.00,,---,0.00,VWS V13.00,2013-10-02 08:36:00,
2013-10-02 04:41:00,57.1,54.2,29.88,NW,319,0.0,0.0,90,0.00,,---,0.00,VWS V13.00,2013-10-02 08:41:00,
2013-10-02 04:46:00,57.2,54.0,29.88,NW,319,0.0,0.0,89,0.00,,---,0.00,VWS V13.00,2013-10-02 08:46:00,
2013-10-02 04:51:00,57.3,53.8,29.88,NW,319,0.0,1.0,88,0.00,,---,0.00,VWS V13.00,2013-10-02 08:51:00,
2013-10-02 04:56:00,57.3,53.8,29.88,NW,319,0.0,1.0,88,0.00,,---,0.00,VWS V13.00,2013-10-02 08:56:00,
2013-10-02 05:01:00,57.4,53.9,29.88,NW,319,0.0,1.0,88,0.00,,---,0.00,VWS V13.00,2013-10-02 09:01:00,
2013-10-02 05:06:00,57.4,53.6,29.88,NW,319,0.0,0.0,87,0.00,,---,0.00,VWS V13.00,2013-10-02 09:06:00,
2013-10-02 05:11:00,57.5,53.7,29.88,NW,319,0.0,0.0,87,0.00,,---,0.00,VWS V13.00,2013-10-02 09:11:00,
2013-10-02 05:15:00,57.5,53.3,29.88,NW,319,0.0,0.0,86,0.00,,---,0.00,VWS V13.00,2013-10-02 09:15:00,
2013-10-02 05:20:00,57.5,53.3,29.88,NW,319,0.0,0.0,86,0.00,,---,0.00,VWS V13.00,2013-10-02 09:20:00,
2013-10-02 05:25:00,57.4,53.2,29.88,NW,319,0.0,1.0,86,0.00,,---,0.00,VWS V13.00,2013-10-02 09:25:00,
2013-10-02 05:30:00,57.5,53.7,29.88,NW,319,0.0,1.0,87,0.00,,---,0.00,VWS V13.00,2013-10-02 09:30:00,
2013-10-02 05:35:00,57.4,53.6,29.88,NW,319,0.0,1.0,87,0.00,,---,0.00,VWS V13.00,2013-10-02 09:35:00,
2013-10-02 05:40:00,57.2,53.4,29.88,NW,319,0.0,0.0,87,0.00,,---,0.00,VWS V13.00,2013-10-02 09:40:00,
2013-10-02 05:45:00,56.9,53.1,29.88,NW,319,0.0,0.0,87,0.00,,---,0.00,VWS V13.00,2013-10-02 09:45:00,
2013-10-02 05:50:00,56.8,53.0,29.88,NW,319,0.0,0.0,87,0.00,,---,0.00,VWS V13.00,2013-10-02 09:50:00,
2013-10-02 05:55:00,56.6,53.1,29.88,NW,319,0.0,0.0,88,0.00,,---,0.00,VWS V13.00,2013-10-02 09:55:00,
2013-10-02 06:00:00,56.4,52.9,29.88,NW,319,0.0,0.0,88,0.00,,---,0.00,VWS V13.00,2013-10-02 10:00:00,
2013-10-02 06:05:00,56.4,52.9,29.88,NW,319,0.0,0.0,88,0.00,,---,0.00,VWS V13.00,2013-10-02 10:05:00,
2013-10-02 06:10:00,56.2,52.7,29.89,NW,319,0.0,0.0,88,0.00,,---,0.00,VWS V13.00,2013-10-02 10:10:00,
2013-10-02 06:15:00,56.1,52.6,29.89,NW,319,0.0,0.0,88,0.00,,---,0.00,VWS V13.00,2013-10-02 10:15:00,
2013-10-02 06:20:00,56.0,52.8,29.89,NW,319,0.0,0.0,89,0.00,,---,0.00,VWS V13.00,2013-10-02 10:20:00,
2013-10-02 06:25:00,55.9,52.4,29.89,NW,319,0.0,0.0,88,0.00,,---,0.00,VWS V13.00,2013-10-02 10:25:00,
2013-10-02 06:30:00,55.8,52.3,29.88,NW,319,0.0,0.0,88,0.00,,---,0.00,VWS V13.00,2013-10-02 10:30:00,
2013-10-02 06:35:00,55.8,52.6,29.89,NW,319,0.0,0.0,89,0.00,,---,0.00,VWS V13.00,2013-10-02 10:35:00,
2013-10-02 06:40:00,55.7,52.5,29.89,NW,319,0.0,0.0,89,0.00,,---,0.00,VWS V13.00,2013-10-02 10:40:00,
2013-10-02 06:45:00,55.7,52.5,29.88,NW,319,0.0,0.0,89,0.00,,---,0.00,VWS V13.00,2013-10-02 10:45:00,
2013-10-02 06:50:00,55.5,52.0,29.88,NW,319,0.0,0.0,88,0.00,,---,0.00,VWS V13.00,2013-10-02 10:50:00,
2013-10-02 06:55:00,55.7,52.2,29.88,NW,319,0.0,0.0,88,0.00,,---,0.00,VWS V13.00,2013-10-02 10:55:00,
2013-10-02 07:00:00,55.8,52.3,29.89,NW,319,0.0,0.0,88,0.00,,---,0.00,VWS V13.00,2013-10-02 11:00:00,
2013-10-02 07:05:00,55.9,52.4,29.89,NW,319,0.0,1.0,88,0.00,,---,0.00,VWS V13.00,2013-10-02 11:05:00,
2013-10-02 07:10:00,56.2,52.7,29.89,NW,319,0.0,1.0,88,0.00,,---,0.00,VWS V13.00,2013-10-02 11:10:00,
2013-10-02 07:15:00,56.5,53.0,29.89,NW,319,0.0,1.0,88,0.00,,---,0.00,VWS V13.00,2013-10-02 11:15:00,
2013-10-02 07:20:00,56.8,53.3,29.89,NW,319,0.0,1.0,88,0.00,,---,0.00,VWS V13.00,2013-10-02 11:20:00,
2013-10-02 07:25:00,56.9,53.4,29.89,NW,319,0.0,1.0,88,0.00,,---,0.00,VWS V13.00,2013-10-02 11:25:00,
2013-10-02 07:30:00,57.0,53.5,29.89,NW,319,0.0,1.0,88,0.00,,---,0.00,VWS V13.00,2013-10-02 11:30:00,
2013-10-02 07:35:00,57.1,53.6,29.89,NW,319,0.0,1.0,88,0.00,,---,0.00,VWS V13.00,2013-10-02 11:35:00,
2013-10-02 07:40:00,57.2,53.7,29.89,NW,319,0.0,0.0,88,0.00,,---,0.00,VWS V13.00,2013-10-02 11:40:00,
2013-10-02 07:45:00,57.3,53.8,29.89,NW,319,0.0,0.0,88,0.00,,---,0.00,VWS V13.00,2013-10-02 11:45:00,
2013-10-02 07:50:00,57.4,53.9,29.89,NW,319,0.0,1.0,88,0.00,,---,0.00,VWS V13.00,2013-10-02 11:50:00,
2013-10-02 07:55:00,57.6,54.1,29.89,NW,319,0.0,1.0,88,0.00,,---,0.00,VWS V13.00,2013-10-02 11:55:00,
2013-10-02 08:00:00,57.5,53.7,29.89,NW,319,0.0,1.0,87,0.00,,---,0.00,VWS V13.00,2013-10-02 12:00:00,
2013-10-02 08:05:00,57.5,54.0,29.89,NW,319,0.0,1.0,88,0.00,,---,0.00,VWS V13.00,2013-10-02 12:05:00,
2013-10-02 08:10:00,57.5,54.0,29.89,NW,319,0.0,0.0,88,0.00,,---,0.00,VWS V13.00,2013-10-02 12:10:00,
2013-10-02 08:15:00,57.6,54.1,29.89,NW,319,0.0,0.0,88,0.00,,---,0.00,VWS V13.00,2013-10-02 12:15:00,
2013-10-02 08:20:00,57.8,54.3,29.89,NW,319,0.0,0.0,88,0.00,,---,0.00,VWS V13.00,2013-10-02 12:20:00,
2013-10-02 08:25:00,58.2,54.7,29.89,NW,319,0.0,1.0,88,0.00,,---,0.00,VWS V13.00,2013-10-02 12:25:00,
2013-10-02 08:30:00,58.9,55.4,29.89,NW,319,0.0,1.0,88,0.00,,---,0.00,VWS V13.00,2013-10-02 12:30:00,
2013-10-02 08:35:00,59.0,55.1,29.89,NW,319,0.0,1.0,87,0.00,,---,0.00,VWS V13.00,2013-10-02 12:35:00,
2013-10-02 08:40:00,59.0,55.1,29.89,NW,319,0.0,0.0,87,0.00,,---,0.00,VWS V13.00,2013-10-02 12:40:00,
2013-10-02 08:45:00,59.2,55.7,29.89,NW,319,0.0,0.0,88,0.00,,---,0.00,VWS V13.00,2013-10-02 12:45:00,
2013-10-02 08:50:00,59.4,55.8,29.89,NW,319,0.0,1.0,88,0.00,,---,0.00,VWS V13.00,2013-10-02 12:50:00,
2013-10-02 08:55:00,59.8,56.2,29.89,NW,319,0.0,1.0,88,0.00,,---,0.00,VWS V13.00,2013-10-02 12:55:00,
2013-10-02 09:00:00,60.2,56.6,29.88,NW,319,0.0,1.0,88,0.00,,---,0.00,VWS V13.00,2013-10-02 13:00:00,
2013-10-02 09:05:00,60.8,57.2,29.88,NW,319,0.0,1.0,88,0.00,,---,0.00,VWS V13.00,2013-10-02 13:05:00,
2013-10-02 09:10:00,61.7,58.1,29.88,NW,319,0.0,1.0,88,0.00,,---,0.00,VWS V13.00,2013-10-02 13:10:00,
2013-10-02 09:15:00,62.6,58.0,29.89,NW,319,1.0,2.0,85,0.00,,---,0.00,VWS V13.00,2013-10-02 13:15:00,
2013-10-02 09:20:00,63.6,58.7,29.89,NW,319,0.0,2.0,84,0.00,,---,0.00,VWS V13.00,2013-10-02 13:20:00,
2013-10-02 09:25:00,64.5,59.6,29.89,NW,319,0.0,2.0,84,0.00,,---,0.00,VWS V13.00,2013-10-02 13:25:00,
2013-10-02 09:30:00,65.4,59.8,29.89,NW,319,0.0,2.0,82,0.00,,---,0.00,VWS V13.00,2013-10-02 13:30:00,
2013-10-02 09:35:00,65.8,60.2,29.88,NW,319,0.0,2.0,82,0.00,,---,0.00,VWS V13.00,2013-10-02 13:35:00,
2013-10-02 09:40:00,66.0,60.0,29.89,NW,319,0.0,1.0,81,0.00,,---,0.00,VWS V13.00,2013-10-02 13:40:00,
2013-10-02 09:45:00,66.3,60.3,29.89,NW,319,1.0,3.0,81,0.00,,---,0.00,VWS V13.00,2013-10-02 13:45:00,
2013-10-02 09:50:00,66.8,60.4,29.89,NW,319,0.0,3.0,80,0.00,,---,0.00,VWS V13.00,2013-10-02 13:50:00,
2013-10-02 09:55:00,67.2,60.5,29.89,NW,319,0.0,3.0,79,0.00,,---,0.00,VWS V13.00,2013-10-02 13:55:00,
2013-10-02 10:00:00,67.6,60.9,29.88,NW,319,0.0,3.0,79,0.00,,---,0.00,VWS V13.00,2013-10-02 14:00:00,
2013-10-02 10:05:00,68.3,61.9,29.88,NW,319,0.0,3.0,80,0.00,,---,0.00,VWS V13.00,2013-10-02 14:05:00,
2013-10-02 10:10:00,68.8,60.9,29.88,NW,319,1.0,3.0,76,0.00,,---,0.00,VWS V13.00,2013-10-02 14:10:00,
2013-10-02 10:15:00,68.5,60.6,29.88,NW,316,0.0,4.0,76,0.00,,---,0.00,VWS V13.00,2013-10-02 14:15:00,
2013-10-02 10:20:00,68.0,60.5,29.88,NW,316,0.0,4.0,77,0.00,,---,0.00,VWS V13.00,2013-10-02 14:20:00,
2013-10-02 10:25:00,68.3,61.2,29.88,NW,315,0.0,4.0,78,0.00,,---,0.00,VWS V13.00,2013-10-02 14:25:00,
2013-10-02 10:30:00,69.0,61.1,29.87,NW,315,1.0,4.0,76,0.00,,---,0.00,VWS V13.00,2013-10-02 14:30:00,
2013-10-02 10:35:00,69.8,61.9,29.87,NW,315,0.0,5.0,76,0.00,,---,0.00,VWS V13.00,2013-10-02 14:35:00,
2013-10-02 10:40:00,70.5,61.4,29.87,NW,315,4.0,5.0,73,0.00,,---,0.00,VWS V13.00,2013-10-02 14:40:00,
2013-10-02 10:45:00,71.1,62.4,29.87,NW,315,0.0,5.0,74,0.00,,---,0.00,VWS V13.00,2013-10-02 14:45:00,
2013-10-02 10:50:00,71.6,62.5,29.87,NW,315,0.0,5.0,73,0.00,,---,0.00,VWS V13.00,2013-10-02 14:50:00,
2013-10-02 10:55:00,72.2,62.7,29.87,NW,315,0.0,5.0,72,0.00,,---,0.00,VWS V13.00,2013-10-02 14:55:00,
2013-10-02 11:00:00,72.5,62.6,29.86,NW,315,0.0,5.0,71,0.00,,---,0.00,VWS V13.00,2013-10-02 15:00:00,
2013-10-02 11:05:00,72.6,61.9,29.86,NW,315,0.0,5.0,69,0.00,,---,0.00,VWS V13.00,2013-10-02 15:05:00,
2013-10-02 11:10:00,73.1,63.2,29.86,NW,315,2.0,3.0,71,0.00,,---,0.00,VWS V13.00,2013-10-02 15:10:00,
2013-10-02 11:15:00,73.5,62.7,29.86,NW,315,2.0,4.0,69,0.00,,---,0.00,VWS V13.00,2013-10-02 15:15:00,
2013-10-02 11:20:00,73.5,62.3,29.86,NW,315,1.0,4.0,68,0.00,,---,0.00,VWS V13.00,2013-10-02 15:20:00,
2013-10-02 11:25:00,73.5,62.3,29.87,NW,315,0.0,4.0,68,0.00,,---,0.00,VWS V13.00,2013-10-02 15:25:00,
2013-10-02 11:30:00,73.5,61.9,29.87,NW,313,0.0,9.0,67,0.00,,---,0.00,VWS V13.00,2013-10-02 15:30:00,
2013-10-02 11:33:00,73.7,62.5,29.87,NW,315,0.0,9.0,68,0.00,,---,0.00,VWS V13.00,2013-10-02 15:33:00,
2013-10-02 11:38:00,73.8,62.2,29.86,NW,315,0.0,3.0,67,0.00,,---,0.00,VWS V13.00,2013-10-02 15:38:00,
2013-10-02 11:43:00,74.3,63.1,29.86,NW,315,0.0,3.0,68,0.00,,---,0.00,VWS V13.00,2013-10-02 15:43:00,
2013-10-02 11:48:00,74.7,62.6,29.86,NW,315,0.0,3.0,66,0.00,,---,0.00,VWS V13.00,2013-10-02 15:48:00,
2013-10-02 11:53:00,75.1,63.4,29.86,NW,315,0.0,3.0,67,0.00,,---,0.00,VWS V13.00,2013-10-02 15:53:00,
2013-10-02 11:58:00,75.3,63.2,29.86,NW,315,2.0,4.0,66,0.00,,---,0.00,VWS V13.00,2013-10-02 15:58:00,
2013-10-02 12:03:00,75.4,62.8,29.86,NW,306,3.0,4.0,65,0.00,,---,0.00,VWS V13.00,2013-10-02 16:03:00,
2013-10-02 12:08:00,75.5,62.0,29.86,NW,304,1.0,6.0,63,0.00,,---,0.00,VWS V13.00,2013-10-02 16:08:00,
2013-10-02 12:13:00,75.5,61.6,29.86,NNW,328,1.0,13.0,62,0.00,,---,0.00,VWS V13.00,2013-10-02 16:13:00,
2013-10-02 12:18:00,75.4,61.5,29.86,NW,317,4.0,13.0,62,0.00,,---,0.00,VWS V13.00,2013-10-02 16:18:00,
2013-10-02 12:23:00,75.3,61.4,29.86,NW,317,3.0,13.0,62,0.00,,---,0.00,VWS V13.00,2013-10-02 16:23:00,
2013-10-02 12:28:00,75.6,61.7,29.86,NW,318,5.0,13.0,62,0.00,,---,0.00,VWS V13.00,2013-10-02 16:28:00,
2013-10-02 12:33:00,75.7,61.8,29.86,NW,318,1.0,13.0,62,0.00,,---,0.00,VWS V13.00,2013-10-02 16:33:00,
2013-10-02 12:38:00,75.8,61.9,29.86,NW,315,1.0,5.0,62,0.00,,---,0.00,VWS V13.00,2013-10-02 16:38:00,
2013-10-02 12:43:00,76.0,62.5,29.85,NW,314,1.0,5.0,63,0.00,,---,0.00,VWS V13.00,2013-10-02 16:43:00,
2013-10-02 12:48:00,76.1,61.7,29.85,NW,315,3.0,5.0,61,0.00,,---,0.00,VWS V13.00,2013-10-02 16:48:00,
2013-10-02 12:53:00,76.1,62.2,29.85,NW,313,4.0,9.0,62,0.00,,---,0.00,VWS V13.00,2013-10-02 16:53:00,
2013-10-02 12:58:00,76.2,62.7,29.85,NW,315,2.0,9.0,63,0.00,,---,0.00,VWS V13.00,2013-10-02 16:58:00,
2013-10-02 13:03:00,76.4,62.4,29.85,NW,314,1.0,9.0,62,0.00,,---,0.00,VWS V13.00,2013-10-02 17:03:00,
2013-10-02 13:08:00,76.7,61.8,29.85,NW,311,4.0,7.0,60,0.00,,---,0.00,VWS V13.00,2013-10-02 17:08:00,
2013-10-02 13:13:00,76.5,62.1,29.84,NW,310,0.0,7.0,61,0.00,,---,0.00,VWS V13.00,2013-10-02 17:13:00,
2013-10-02 13:18:00,76.6,61.7,29.85,NW,310,1.0,7.0,60,0.00,,---,0.00,VWS V13.00,2013-10-02 17:18:00,
2013-10-02 13:23:00,76.4,62.0,29.85,WNW,298,1.0,7.0,61,0.00,,---,0.00,VWS V13.00,2013-10-02 17:23:00,
2013-10-02 13:28:00,76.5,61.6,29.85,WNW,298,1.0,7.0,60,0.00,,---,0.00,VWS V13.00,2013-10-02 17:28:00,
2013-10-02 13:33:00,76.8,62.3,29.85,WNW,298,3.0,7.0,61,0.00,,---,0.00,VWS V13.00,2013-10-02 17:33:00,
2013-10-02 13:38:00,76.7,61.3,29.85,WNW,298,0.0,3.0,59,0.00,,---,0.00,VWS V13.00,2013-10-02 17:38:00,
2013-10-02 13:43:00,76.9,62.0,29.84,WNW,298,0.0,3.0,60,0.00,,---,0.00,VWS V13.00,2013-10-02 17:43:00,
2013-10-02 13:48:00,77.3,62.8,29.84,WNW,298,1.0,3.0,61,0.00,,---,0.00,VWS V13.00,2013-10-02 17:48:00,
2013-10-02 13:53:00,77.6,63.6,29.84,WNW,300,2.0,5.0,62,0.00,,---,0.00,VWS V13.00,2013-10-02 17:53:00,
2013-10-02 13:58:00,77.9,62.0,29.84,WNW,300,1.0,5.0,58,0.00,,---,0.00,VWS V13.00,2013-10-02 17:58:00,
2013-10-02 14:03:00,77.8,61.9,29.84,WNW,300,0.0,5.0,58,0.00,,---,0.00,VWS V13.00,2013-10-02 18:03:00,
2013-10-02 14:08:00,77.8,62.3,29.84,WNW,300,0.0,3.0,59,0.00,,---,0.00,VWS V13.00,2013-10-02 18:08:00,
2013-10-02 14:13:00,77.6,61.7,29.84,WNW,300,2.0,7.0,58,0.00,,---,0.00,VWS V13.00,2013-10-02 18:13:00,
2013-10-02 14:18:00,77.5,61.6,29.84,WNW,302,1.0,7.0,58,0.00,,---,0.00,VWS V13.00,2013-10-02 18:18:00,
2013-10-02 14:23:00,77.6,61.2,29.84,WNW,302,0.0,7.0,57,0.00,,---,0.00,VWS V13.00,2013-10-02 18:23:00,
2013-10-02 14:28:00,77.9,62.0,29.84,WNW,302,0.0,7.0,58,0.00,,---,0.00,VWS V13.00,2013-10-02 18:28:00,
2013-10-02 14:33:00,77.8,62.3,29.84,WNW,302,1.0,7.0,59,0.00,,---,0.00,VWS V13.00,2013-10-02 18:33:00,
2013-10-02 14:38:00,77.9,62.9,29.84,WNW,301,3.0,5.0,60,0.00,,---,0.00,VWS V13.00,2013-10-02 18:38:00,
2013-10-02 14:43:00,77.6,62.2,29.84,WNW,301,3.0,5.0,59,0.00,,---,0.00,VWS V13.00,2013-10-02 18:43:00,
2013-10-02 14:48:00,77.2,61.3,29.84,WNW,298,1.0,6.0,58,0.00,,---,0.00,VWS V13.00,2013-10-02 18:48:00,
2013-10-02 14:53:00,76.6,61.2,29.84,WNW,298,3.0,6.0,59,0.00,,---,0.00,VWS V13.00,2013-10-02 18:53:00,
2013-10-02 14:58:00,76.6,61.7,29.84,WNW,298,0.0,6.0,60,0.00,,---,0.00,VWS V13.00,2013-10-02 18:58:00,
2013-10-02 15:03:00,76.9,61.5,29.84,WNW,298,0.0,6.0,59,0.00,,---,0.00,VWS V13.00,2013-10-02 19:03:00,
2013-10-02 15:08:00,77.0,61.1,29.84,WNW,300,1.0,7.0,58,0.00,,---,0.00,VWS V13.00,2013-10-02 19:08:00,
2013-10-02 15:13:00,77.0,60.6,29.84,WNW,298,2.0,12.0,57,0.00,,---,0.00,VWS V13.00,2013-10-02 19:13:00,
2013-10-02 15:18:00,76.7,60.3,29.84,WNW,298,0.0,12.0,57,0.00,,---,0.00,VWS V13.00,2013-10-02 19:18:00,
2013-10-02 15:23:00,76.7,61.3,29.84,WNW,297,0.0,12.0,59,0.00,,---,0.00,VWS V13.00,2013-10-02 19:23:00,
2013-10-02 15:28:00,77.0,61.6,29.84,WNW,297,3.0,12.0,59,0.00,,---,0.00,VWS V13.00,2013-10-02 19:28:00,
2013-10-02 15:33:00,76.9,62.0,29.84,WNW,298,0.0,12.0,60,0.00,,---,0.00,VWS V13.00,2013-10-02 19:33:00,
2013-10-02 15:38:00,76.7,61.3,29.84,WNW,295,3.0,6.0,59,0.00,,---,0.00,VWS V13.00,2013-10-02 19:38:00,
2013-10-02 15:43:00,76.4,61.0,29.84,WNW,296,0.0,7.0,59,0.00,,---,0.00,VWS V13.00,2013-10-02 19:43:00,
2013-10-02 15:48:00,76.1,60.3,29.84,NW,305,9.0,9.0,58,0.00,,---,0.00,VWS V13.00,2013-10-02 19:48:00,
2013-10-02 15:52:00,75.9,60.6,29.84,NW,305,1.0,9.0,59,0.00,,---,0.00,VWS V13.00,2013-10-02 19:52:00,
2013-10-02 15:57:00,75.6,60.3,29.84,WNW,299,2.0,9.0,59,0.00,,---,0.00,VWS V13.00,2013-10-02 19:57:00,
2013-10-02 16:02:00,75.2,60.4,29.84,WNW,294,2.0,10.0,60,0.00,,---,0.00,VWS V13.00,2013-10-02 20:02:00,
2013-10-02 16:07:00,74.9,60.1,29.84,WNW,294,2.0,5.0,60,0.00,,---,0.00,VWS V13.00,2013-10-02 20:07:00,
2013-10-02 16:12:00,74.8,60.5,29.84,WNW,294,3.0,5.0,61,0.00,,---,0.00,VWS V13.00,2013-10-02 20:12:00,
2013-10-02 16:17:00,74.7,60.4,29.84,WNW,294,0.0,6.0,61,0.00,,---,0.00,VWS V13.00,2013-10-02 20:17:00,
2013-10-02 16:22:00,74.7,60.8,29.83,WNW,298,0.0,9.0,62,0.00,,---,0.00,VWS V13.00,2013-10-02 20:22:00,
2013-10-02 16:27:00,74.6,60.7,29.83,WNW,296,1.0,9.0,62,0.00,,---,0.00,VWS V13.00,2013-10-02 20:27:00,
2013-10-02 16:32:00,74.4,60.1,29.83,WNW,298,0.0,9.0,61,0.00,,---,0.00,VWS V13.00,2013-10-02 20:32:00,
2013-10-02 16:37:00,74.3,60.5,29.83,WNW,296,1.0,2.0,62,0.00,,---,0.00,VWS V13.00,2013-10-02 20:37:00,
2013-10-02 16:42:00,74.2,60.8,29.83,WNW,297,5.0,5.0,63,0.00,,---,0.00,VWS V13.00,2013-10-02 20:42:00,
2013-10-02 16:47:00,74.0,60.6,29.84,WNW,297,0.0,5.0,63,0.00,,---,0.00,VWS V13.00,2013-10-02 20:47:00,
2013-10-02 16:52:00,73.8,60.4,29.84,WNW,297,0.0,5.0,63,0.00,,---,0.00,VWS V13.00,2013-10-02 20:52:00,
2013-10-02 16:57:00,73.6,59.3,29.84,WNW,296,2.0,7.0,61,0.00,,---,0.00,VWS V13.00,2013-10-02 20:57:00,
2013-10-02 17:02:00,73.4,59.2,29.84,WNW,296,0.0,7.0,61,0.00,,---,0.00,VWS V13.00,2013-10-02 21:02:00,
2013-10-02 17:07:00,73.4,60.0,29.84,WNW,296,0.0,3.0,63,0.00,,---,0.00,VWS V13.00,2013-10-02 21:07:00,
2013-10-02 17:12:00,73.2,60.3,29.84,WNW,296,0.0,3.0,64,0.00,,---,0.00,VWS V13.00,2013-10-02 21:12:00,
2013-10-02 17:17:00,73.0,60.1,29.84,WNW,296,0.0,3.0,64,0.00,,---,0.00,VWS V13.00,2013-10-02 21:17:00,
2013-10-02 17:22:00,72.8,60.4,29.84,WNW,296,0.0,3.0,65,0.00,,---,0.00,VWS V13.00,2013-10-02 21:22:00,
2013-10-02 17:27:00,72.6,59.7,29.85,WNW,296,2.0,4.0,64,0.00,,---,0.00,VWS V13.00,2013-10-02 21:27:00,
2013-10-02 17:32:00,72.5,59.6,29.85,WNW,296,1.0,4.0,64,0.00,,---,0.00,VWS V13.00,2013-10-02 21:32:00,
2013-10-02 17:37:00,72.3,59.9,29.85,WNW,296,0.0,1.0,65,0.00,,---,0.00,VWS V13.00,2013-10-02 21:37:00,
2013-10-02 17:42:00,71.9,59.9,29.85,WNW,296,3.0,3.0,66,0.00,,---,0.00,VWS V13.00,2013-10-02 21:42:00,
2013-10-02 17:47:00,71.7,59.8,29.85,WNW,296,2.0,5.0,66,0.00,,---,0.00,VWS V13.00,2013-10-02 21:47:00,
2013-10-02 17:52:00,71.3,59.8,29.85,WNW,296,0.0,5.0,67,0.00,,---,0.00,VWS V13.00,2013-10-02 21:52:00,
2013-10-02 17:57:00,71.0,59.9,29.86,WNW,296,0.0,5.0,68,0.00,,---,0.00,VWS V13.00,2013-10-02 21:57:00,
2013-10-02 18:02:00,70.6,60.0,29.86,WNW,296,0.0,5.0,69,0.00,,---,0.00,VWS V13.00,2013-10-02 22:02:00,
2013-10-02 18:07:00,70.5,60.3,29.86,WNW,296,0.0,4.0,70,0.00,,---,0.00,VWS V13.00,2013-10-02 22:07:00,
2013-10-02 18:12:00,70.3,60.5,29.86,WNW,296,2.0,4.0,71,0.00,,---,0.00,VWS V13.00,2013-10-02 22:12:00,
2013-10-02 18:17:00,69.9,60.1,29.86,WNW,296,2.0,4.0,71,0.00,,---,0.00,VWS V13.00,2013-10-02 22:17:00,
2013-10-02 18:22:00,69.7,59.9,29.86,WNW,296,3.0,8.0,71,0.00,,---,0.00,VWS V13.00,2013-10-02 22:22:00,
2013-10-02 18:27:00,69.4,60.0,29.86,WNW,296,3.0,8.0,72,0.00,,---,0.00,VWS V13.00,2013-10-02 22:27:00,
2013-10-02 18:32:00,69.3,59.9,29.87,WNW,295,1.0,8.0,72,0.00,,---,0.00,VWS V13.00,2013-10-02 22:32:00,
2013-10-02 18:37:00,69.3,60.3,29.86,WNW,295,0.0,3.0,73,0.00,,---,0.00,VWS V13.00,2013-10-02 22:37:00,
2013-10-02 18:42:00,69.2,60.2,29.86,WNW,295,2.0,3.0,73,0.00,,---,0.00,VWS V13.00,2013-10-02 22:42:00,
2013-10-02 18:47:00,69.1,60.5,29.87,WNW,295,1.0,3.0,74,0.00,,---,0.00,VWS V13.00,2013-10-02 22:47:00,
2013-10-02 18:52:00,68.9,60.7,29.87,WNW,295,0.0,3.0,75,0.00,,---,0.00,VWS V13.00,2013-10-02 22:52:00,
2013-10-02 18:57:00,68.5,60.3,29.87,WNW,295,0.0,3.0,75,0.00,,---,0.00,VWS V13.00,2013-10-02 22:57:00,
2013-10-02 19:02:00,68.3,60.5,29.87,WNW,295,0.0,3.0,76,0.00,,---,0.00,VWS V13.00,2013-10-02 23:02:00,
2013-10-02 19:07:00,68.1,60.3,29.87,WNW,295,0.0,2.0,76,0.00,,---,0.00,VWS V13.00,2013-10-02 23:07:00,
2013-10-02 19:12:00,68.0,60.2,29.87,WNW,295,1.0,3.0,76,0.00,,---,0.00,VWS V13.00,2013-10-02 23:12:00,
2013-10-02 19:17:00,68.0,60.5,29.87,WNW,295,0.0,3.0,77,0.00,,---,0.00,VWS V13.00,2013-10-02 23:17:00,
2013-10-02 19:22:00,68.0,60.5,29.87,WNW,295,2.0,4.0,77,0.00,,---,0.00,VWS V13.00,2013-10-02 23:22:00,
2013-10-02 19:27:00,68.1,60.6,29.87,WNW,295,0.0,5.0,77,0.00,,---,0.00,VWS V13.00,2013-10-02 23:27:00,
2013-10-02 19:32:00,68.0,60.5,29.87,WNW,295,0.0,5.0,77,0.00,,---,0.00,VWS V13.00,2013-10-02 23:32:00,
2013-10-02 19:37:00,67.9,60.4,29.88,WNW,295,0.0,4.0,77,0.00,,---,0.00,VWS V13.00,2013-10-02 23:37:00,
2013-10-02 19:42:00,67.9,60.4,29.88,WNW,295,0.0,4.0,77,0.00,,---,0.00,VWS V13.00,2013-10-02 23:42:00,
2013-10-02 19:47:00,67.7,60.6,29.88,WNW,295,0.0,4.0,78,0.00,,---,0.00,VWS V13.00,2013-10-02 23:47:00,
2013-10-02 19:49:00,67.7,60.6,29.88,WNW,295,0.0,4.0,78,0.00,,---,0.00,VWS V13.00,2013-10-02 23:49:00,
2013-10-02 19:54:00,67.5,60.4,29.89,WNW,295,0.0,4.0,78,0.00,,---,0.00,VWS V13.00,2013-10-02 23:54:00,
2013-10-02 19:59:00,67.1,60.4,29.89,WNW,295,0.0,4.0,79,0.00,,---,0.00,VWS V13.00,2013-10-02 23:59:00,
2013-10-02 20:04:00,66.8,60.4,29.89,WNW,295,0.0,4.0,80,0.00,,---,0.00,VWS V13.00,2013-10-03 00:04:00,
2013-10-02 20:09:00,66.6,60.2,29.89,WNW,295,0.0,0.0,80,0.00,,---,0.00,VWS V13.00,2013-10-03 00:09:00,
2013-10-02 20:14:00,66.5,60.5,29.89,WNW,295,0.0,0.0,81,0.00,,---,0.00,VWS V13.00,2013-10-03 00:14:00,
2013-10-02 20:19:00,66.3,60.7,29.89,WNW,295,0.0,0.0,82,0.00,,---,0.00,VWS V13.00,2013-10-03 00:19:00,
2013-10-02 20:24:00,66.1,60.5,29.90,WNW,295,0.0,0.0,82,0.00,,---,0.00,VWS V13.00,2013-10-03 00:24:00,
2013-10-02 20:29:00,65.9,60.6,29.90,WNW,295,0.0,1.0,83,0.00,,---,0.00,VWS V13.00,2013-10-03 00:29:00,
2013-10-02 20:34:00,65.5,60.5,29.90,WNW,295,1.0,1.0,84,0.00,,---,0.00,VWS V13.00,2013-10-03 00:34:00,
2013-10-02 20:39:00,65.3,60.3,29.90,WNW,295,1.0,3.0,84,0.00,,---,0.00,VWS V13.00,2013-10-03 00:39:00,
2013-10-02 20:44:00,65.2,60.2,29.90,WNW,295,0.0,3.0,84,0.00,,---,0.00,VWS V13.00,2013-10-03 00:44:00,
2013-10-02 20:49:00,65.2,60.6,29.90,WNW,295,0.0,3.0,85,0.00,,---,0.00,VWS V13.00,2013-10-03 00:49:00,
2013-10-02 20:54:00,65.2,60.2,29.90,WNW,295,0.0,3.0,84,0.00,,---,0.00,VWS V13.00,2013-10-03 00:54:00,
2013-10-02 20:59:00,65.3,60.3,29.90,WNW,295,0.0,3.0,84,0.00,,---,0.00,VWS V13.00,2013-10-03 00:59:00,
2013-10-02 21:04:00,65.4,60.5,29.90,WNW,295,0.0,3.0,84,0.00,,---,0.00,VWS V13.00,2013-10-03 01:04:00,
2013-10-02 21:09:00,65.4,60.5,29.90,WNW,295,0.0,2.0,84,0.00,,---,0.00,VWS V13.00,2013-10-03 01:09:00,
2013-10-02 21:14:00,65.4,60.5,29.90,WNW,295,1.0,2.0,84,0.00,,---,0.00,VWS V13.00,2013-10-03 01:14:00,
2013-10-02 21:19:00,65.4,60.5,29.90,WNW,295,0.0,2.0,84,0.00,,---,0.00,VWS V13.00,2013-10-03 01:19:00,
2013-10-02 21:24:00,65.2,60.2,29.90,WNW,295,0.0,2.0,84,0.00,,---,0.00,VWS V13.00,2013-10-03 01:24:00,
2013-10-02 21:29:00,64.8,60.2,29.90,WNW,295,0.0,2.0,85,0.00,,---,0.00,VWS V13.00,2013-10-03 01:29:00,
2013-10-02 21:34:00,64.5,60.2,29.91,WNW,295,0.0,2.0,86,0.00,,---,0.00,VWS V13.00,2013-10-03 01:34:00,
2013-10-02 21:39:00,64.3,60.0,29.91,WNW,295,0.0,1.0,86,0.00,,---,0.00,VWS V13.00,2013-10-03 01:39:00,
2013-10-02 21:44:00,64.2,59.9,29.91,WNW,295,0.0,1.0,86,0.00,,---,0.00,VWS V13.00,2013-10-03 01:44:00,
2013-10-02 21:49:00,64.1,59.8,29.91,WNW,295,0.0,1.0,86,0.00,,---,0.00,VWS V13.00,2013-10-03 01:49:00,
2013-10-02 21:54:00,64.0,59.7,29.91,WNW,295,0.0,1.0,86,0.00,,---,0.00,VWS V13.00,2013-10-03 01:54:00,
2013-10-02 21:59:00,63.8,59.5,29.92,WNW,295,0.0,1.0,86,0.00,,---,0.00,VWS V13.00,2013-10-03 01:59:00,
2013-10-02 22:04:00,63.7,59.4,29.92,WNW,295,0.0,1.0,86,0.00,,---,0.00,VWS V13.00,2013-10-03 02:04:00,
2013-10-02 22:05:00,63.7,59.4,29.92,WNW,295,0.0,1.0,86,0.00,,---,0.00,VWS V13.00,2013-10-03 02:05:00,
2013-10-02 22:10:00,63.6,59.3,29.92,WNW,295,0.0,0.0,86,0.00,,---,0.00,VWS V13.00,2013-10-03 02:10:00,
2013-10-02 22:15:00,63.5,59.2,29.92,WNW,295,0.0,1.0,86,0.00,,---,0.00,VWS V13.00,2013-10-03 02:15:00,
2013-10-02 22:20:00,63.3,59.4,29.92,WNW,295,0.0,1.0,87,0.00,,---,0.00,VWS V13.00,2013-10-03 02:20:00,
2013-10-02 22:25:00,63.2,59.3,29.92,WNW,295,0.0,1.0,87,0.00,,---,0.00,VWS V13.00,2013-10-03 02:25:00,
2013-10-02 22:30:00,63.1,59.2,29.92,WNW,295,1.0,1.0,87,0.00,,---,0.00,VWS V13.00,2013-10-03 02:30:00,
2013-10-02 22:35:00,63.2,59.3,29.92,WNW,295,0.0,2.0,87,0.00,,---,0.00,VWS V13.00,2013-10-03 02:35:00,
2013-10-02 22:40:00,63.2,59.0,29.92,WNW,295,0.0,1.0,86,0.00,,---,0.00,VWS V13.00,2013-10-03 02:40:00,
2013-10-02 22:45:00,63.1,58.8,29.93,WNW,295,0.0,2.0,86,0.00,,---,0.00,VWS V13.00,2013-10-03 02:45:00,
2013-10-02 22:50:00,63.1,58.8,29.93,WNW,295,0.0,2.0,86,0.00,,---,0.00,VWS V13.00,2013-10-03 02:50:00,
2013-10-02 22:55:00,63.0,58.8,29.93,WNW,295,0.0,2.0,86,0.00,,---,0.00,VWS V13.00,2013-10-03 02:55:00,
2013-10-02 23:00:00,62.9,58.7,29.94,WNW,295,0.0,2.0,86,0.00,,---,0.00,VWS V13.00,2013-10-03 03:00:00,
2013-10-02 23:05:00,62.7,58.5,29.94,WNW,295,0.0,2.0,86,0.00,,---,0.00,VWS V13.00,2013-10-03 03:05:00,
2013-10-02 23:10:00,62.6,58.4,29.93,WNW,295,0.0,1.0,86,0.00,,---,0.00,VWS V13.00,2013-10-03 03:10:00,
2013-10-02 23:15:00,62.6,58.0,29.93,WNW,295,0.0,2.0,85,0.00,,---,0.00,VWS V13.00,2013-10-03 03:15:00,
2013-10-02 23:20:00,62.7,58.1,29.94,WNW,295,0.0,2.0,85,0.00,,---,0.00,VWS V13.00,2013-10-03 03:20:00,
2013-10-02 23:25:00,62.7,57.8,29.94,WNW,295,4.0,4.0,84,0.00,,---,0.00,VWS V13.00,2013-10-03 03:25:00,
2013-10-02 23:30:00,62.7,57.5,29.94,WNW,295,0.0,4.0,83,0.00,,---,0.00,VWS V13.00,2013-10-03 03:30:00,
2013-10-02 23:35:00,62.9,57.3,29.94,WNW,295,0.0,4.0,82,0.00,,---,0.00,VWS V13.00,2013-10-03 03:35:00,
2013-10-02 23:40:00,63.0,57.1,29.94,WNW,295,0.0,2.0,81,0.00,,---,0.00,VWS V13.00,2013-10-03 03:40:00,
2013-10-02 23:45:00,63.1,57.2,29.95,WNW,295,1.0,2.0,81,0.00,,---,0.00,VWS V13.00,2013-10-03 03:45:00,
2013-10-02 23:50:00,63.2,56.9,29.95,WNW,295,0.0,3.0,80,0.00,,---,0.00,VWS V13.00,2013-10-03 03:50:00,
2013-10-02 23:55:00,63.2,56.6,29.95,WNW,295,0.0,3.0,79,0.00,,---,0.00,VWS V13.00,2013-10-03 03:55:00,